Theta_e
314 317 317 317 318 320 325 325 324 327 326 323 321 319 317 316 317 319 317 319 323 322 320 320 321 321 321 324 323 319 322 327 326 329 330 330 330 331 331 329 329 330 330 330 331 331 331 332 333 335 337 336 336 334 323 315 313 311 313 313 312 313 313 313 312 312 314 317 319 322 323 322 322 321 321 323 324 323 322 318 316 315 317 320 320 321
315 318 320 320 322 325 328 329 327 329 329 325 322 319 317 316 317 321 320 319 324 325 322 323 320 321 322 322 323 319 320 326 327 328 329 329 329 331 332 330 329 331 331 333 335 335 335 336 335 336 337 336 336 332 321 315 313 311 312 313 313 313 313 313 313 316 319 318 319 322 322 322 322 320 319 321 322 320 317 314 312 312 314 315 317 319
318 319 321 321 325 327 327 328 328 327 326 324 321 319 318 317 317 326 329 320 322 324 322 324 322 322 324 322 324 324 321 324 327 328 329 330 330 330 331 332 333 333 332 334 335 335 335 336 336 337 337 337 336 332 321 315 314 312 312 313 313 313 313 313 317 322 324 321 320 321 321 321 321 321 321 318 315 314 312 310 310 315 319 321 321 322
320 321 321 323 327 327 325 326 327 326 325 322 320 318 318 318 314 322 331 326 325 327 322 325 326 324 326 325 326 324 319 321 325 328 329 329 330 330 330 332 334 332 330 334 335 334 335 336 337 337 337 337 335 332 323 318 319 316 313 313 313 313 313 316 321 325 325 323 322 322 322 322 319 321 319 313 310 309 308 310 313 319 322 322 322 322
318 319 321 326 328 325 322 323 321 321 324 324 323 319 317 319 316 319 328 328 329 331 326 325 326 328 327 324 325 323 320 322 321 324 326 327 328 328 329 331 332 331 329 332 334 333 334 335 336 336 337 336 334 333 326 321 325 322 315 313 312 312 315 317 321 323 322 322 322 321 323 323 321 321 315 309 311 311 309 310 313 318 321 321 321 321
316 319 322 325 325 323 321 321 320 320 321 323 326 324 321 322 321 321 325 326 326 328 329 325 324 331 331 322 323 325 323 324 320 321 322 321 323 325 329 330 329 330 330 331 333 333 332 332 334 335 336 333 330 329 327 324 327 326 318 314 311 313 316 317 319 319 319 319 318 317 319 319 316 315 312 309 311 310 308 309 310 313 317 318 319 317
318 320 322 323 324 323 322 320 322 322 319 320 325 326 325 323 323 324 324 322 321 324 330 327 322 330 331 323 324 325 324 324 322 324 322 318 323 325 329 330 329 330 330 331 332 330 329 329 331 333 332 329 324 325 328 329 329 328 322 315 311 313 315 316 317 316 315 314 314 311 312 311 309 310 311 311 310 308 308 308 308 309 310 311 313 312
323 321 321 322 322 321 320 320 325 324 317 320 326 324 323 322 323 326 323 320 321 322 326 325 321 323 323 324 327 324 322 323 322 325 324 320 324 327 329 330 329 329 329 329 329 327 327 327 328 330 330 328 326 326 329 331 331 330 325 317 312 313 314 315 315 314 312 311 310 309 309 308 309 311 311 310 309 308 308 307 307 308 308 307 308 307
325 323 323 324 320 319 319 320 324 323 318 322 328 325 321 321 322 323 321 320 321 319 322 326 321 319 321 325 326 322 320 322 323 325 325 320 322 327 330 330 329 329 329 329 329 328 327 326 326 327 328 329 331 331 331 332 333 332 328 322 315 313 313 314 314 313 311 311 309 309 310 310 312 313 311 310 309 308 308 308 308 307 307 308 307 307
322 322 323 323 320 319 320 319 319 319 320 323 324 322 320 320 323 323 321 321 320 320 324 328 321 317 323 327 325 325 322 322 324 325 324 319 319 325 328 328 328 329 329 329 328 329 329 328 327 326 325 329 334 335 332 332 333 333 331 327 319 313 312 313 314 312 311 310 310 311 313 312 314 314 311 309 309 308 309 309 308 308 307 308 307 307
318 317 318 319 319 319 318 318 317 316 320 323 321 320 321 321 321 320 320 320 319 323 328 327 322 320 323 323 324 329 325 323 327 326 325 321 318 323 327 327 328 327 328 329 329 329 329 329 328 327 326 328 333 335 334 332 332 332 332 329 322 315 312 313 314 313 311 310 310 313 315 314 314 313 311 309 309 309 309 309 309 309 308 308 308 307
317 316 318 317 316 316 315 315 316 315 317 320 319 319 319 322 324 323 324 322 321 327 328 323 321 322 322 323 327 331 326 324 329 326 323 323 319 321 323 325 326 326 327 329 329 329 329 328 327 327 326 328 332 334 335 333 332 332 332 330 326 319 313 312 313 313 312 311 311 315 317 315 314 313 309 309 309 309 309 310 310 309 309 308 308 308
320 318 317 316 316 315 315 314 315 316 317 317 317 317 315 319 327 328 328 326 325 330 329 323 322 322 324 326 326 327 324 323 325 323 321 321 319 319 321 323 324 325 326 327 329 328 327 326 326 326 326 326 330 333 334 334 333 332 333 332 330 324 317 313 312 313 312 311 311 316 318 316 316 313 309 309 310 309 310 310 310 310 310 310 309 308
323 324 318 316 318 315 314 315 315 315 316 316 316 317 317 319 323 326 324 323 326 330 329 325 324 324 326 329 325 323 322 321 320 320 320 320 319 319 321 324 325 324 324 325 325 326 326 326 326 327 326 325 327 329 331 332 333 333 332 333 332 329 323 317 313 312 312 311 312 316 318 317 316 313 311 310 309 309 310 310 310 310 311 312 311 310
320 325 323 318 318 316 314 315 316 315 315 316 315 317 321 322 322 324 324 324 326 327 326 323 323 323 327 334 331 322 319 318 319 320 320 320 320 321 322 325 326 325 323 322 322 323 324 326 328 329 328 327 326 327 329 330 333 333 332 332 331 329 327 324 318 313 311 311 312 316 319 318 316 314 312 312 311 310 310 311 311 311 311 312 313 312
315 320 322 317 317 315 314 315 315 314 316 320 317 317 320 322 322 324 326 327 324 323 324 323 322 324 328 332 329 321 318 318 317 319 319 320 322 323 324 326 327 326 325 323 323 321 322 325 329 330 329 329 329 328 329 330 331 330 327 326 327 327 328 328 324 319 316 312 313 316 319 319 318 314 313 315 314 312 311 313 313 312 313 313 313 313
314 318 320 316 316 315 314 316 314 314 317 319 316 316 319 320 322 323 323 323 321 322 325 322 320 322 322 325 325 321 320 319 317 318 319 321 323 323 325 327 328 328 327 326 325 323 323 325 329 329 328 330 330 330 330 329 328 326 323 322 325 326 327 328 325 322 320 317 316 318 319 319 319 315 314 317 318 316 315 317 317 317 316 315 314 314
314 318 319 314 314 315 315 316 315 314 316 315 314 317 317 316 322 323 320 319 319 320 322 319 319 320 319 324 326 321 318 319 318 320 320 321 323 323 325 327 327 328 328 327 328 327 326 326 327 327 327 328 329 329 329 329 328 328 326 325 326 325 326 327 325 320 319 319 320 321 320 319 320 318 314 317 319 319 318 319 319 320 319 317 316 315
314 317 320 316 313 316 315 313 314 315 315 314 314 314 315 318 320 320 319 321 321 319 320 320 320 319 319 324 325 320 319 321 320 320 321 323 323 323 325 326 326 327 327 327 327 326 326 326 326 326 326 326 327 328 328 328 328 328 327 328 327 326 325 326 325 320 318 321 323 323 322 321 320 320 317 316 319 320 319 319 320 320 320 319 318 316
316 317 323 321 314 314 315 315 316 317 316 316 314 313 315 317 316 317 319 322 321 319 319 321 320 320 323 324 323 322 323 324 322 322 322 322 321 322 324 325 325 325 326 326 326 326 326 326 326 326 326 326 326 326 327 327 327 327 327 328 328 327 325 325 325 322 318 321 322 322 323 322 321 321 320 318 319 319 319 319 320 320 320 320 319 318
317 319 323 323 316 313 315 316 317 318 317 317 317 318 320 318 317 321 321 317 318 320 321 321 320 323 329 327 322 323 325 324 324 324 323 321 321 322 323 324 325 324 324 324 324 325 325 325 325 325 325 327 326 326 327 326 327 327 327 327 326 326 326 325 325 322 319 320 320 320 321 323 322 322 322 321 320 320 319 320 320 320 320 320 320 320
318 318 321 322 317 315 315 314 313 315 316 316 317 318 323 327 324 323 323 321 319 321 327 328 323 325 330 326 322 324 324 323 322 321 321 320 320 321 321 322 324 324 324 324 323 323 323 323 323 323 324 325 325 326 326 326 326 326 326 326 325 325 325 324 323 321 320 320 320 319 320 322 323 322 322 322 321 321 320 320 320 321 320 319 319 320
318 317 318 319 317 314 313 313 313 313 313 315 317 317 320 326 325 322 324 326 322 320 326 328 326 330 333 326 323 325 322 319 319 319 319 319 319 320 320 320 321 322 323 323 323 323 323 323 323 322 322 322 322 323 324 324 325 325 325 326 325 325 324 323 321 320 321 322 320 319 320 322 324 324 324 323 323 322 321 321 321 321 319 318 317 318
318 317 315 316 316 315 315 313 312 312 311 313 317 316 314 317 321 321 320 322 321 318 320 321 320 326 332 327 321 321 319 317 319 319 318 318 319 318 318 318 319 319 319 320 320 320 320 321 321 322 322 321 322 321 321 322 322 323 324 324 325 325 324 324 323 321 322 322 321 320 321 323 324 324 323 322 320 320 322 321 321 320 319 318 317 318
318 318 316 315 316 319 320 317 317 316 314 314 315 317 316 315 319 321 319 321 322 318 317 318 318 322 328 327 320 318 319 320 318 318 318 318 318 318 318 317 317 317 317 317 318 318 317 317 317 318 320 321 321 321 321 321 322 322 322 322 323 324 324 324 323 323 323 323 322 322 323 323 323 322 322 320 319 320 322 321 320 320 320 319 318 318
318 319 318 316 316 319 320 317 316 315 313 314 315 316 317 314 318 321 319 321 322 318 316 318 320 323 324 322 319 319 320 320 318 318 317 318 317 317 317 316 316 316 316 316 317 317 317 316 315 315 315 316 316 317 317 319 320 321 321 321 322 323 322 322 322 323 323 323 323 323 322 321 321 320 320 320 320 321 322 322 321 320 320 319 318 317
317 317 316 316 316 318 317 313 312 311 312 313 314 315 316 315 319 320 317 318 321 319 319 320 323 324 319 316 318 319 319 320 319 318 317 317 317 316 316 316 316 315 315 315 315 315 315 315 315 315 314 314 313 313 312 312 314 317 319 320 320 320 320 319 320 321 322 322 322 322 322 322 321 322 322 322 322 321 321 321 321 320 319 319 319 319
314 315 316 315 313 313 311 309 310 310 311 311 312 313 315 316 318 316 316 320 322 321 321 321 320 319 316 314 316 317 318 319 318 316 316 316 316 316 316 316 315 315 315 315 314 314 314 313 313 314 314 314 313 313 312 311 310 311 314 315 316 316 315 314 315 317 317 317 317 317 317 318 318 318 318 319 319 319 319 319 319 319 319 319 319 319
313 315 315 312 311 312 310 310 311 310 310 311 312 314 315 317 317 314 315 319 319 321 324 322 317 316 315 315 315 316 316 316 314 314 315 316 316 316 316 316 316 316 316 315 315 314 313 313 312 312 312 312 312 312 312 312 311 310 310 309 309 311 311 310 310 311 312 313 313 313 312 312 313 311 311 313 315 315 315 315 315 316 317 317 317 317
315 316 314 312 313 313 311 311 311 311 311 312 312 313 314 315 316 315 315 317 316 317 322 321 317 317 316 313 314 314 313 312 312 312 313 314 314 315 315 315 316 316 316 316 315 315 314 313 312 312 311 311 311 311 311 311 310 310 310 309 308 308 308 308 308 307 308 310 310 309 308 309 309 309 308 310 311 312 312 311 311 312 313 314 314 314
315 316 314 314 316 316 313 312 311 311 312 312 312 314 316 316 316 316 314 316 315 316 319 320 319 319 317 312 311 311 310 311 311 310 310 311 312 312 313 314 314 315 315 315 315 315 314 313 312 312 311 311 311 310 310 310 310 310 309 309 309 309 308 308 307 305 307 309 308 307 308 308 308 309 309 309 310 310 310 310 310 311 311 312 312 313
315 315 314 313 316 316 313 311 312 312 312 313 314 316 317 315 315 315 313 314 314 314 317 317 317 318 316 311 310 311 310 310 310 309 309 310 310 310 311 311 312 314 314 314 315 314 314 313 312 311 311 311 310 310 310 309 309 309 309 308 306 306 306 305 304 304 305 307 307 308 309 309 309 309 308 309 309 309 310 310 311 311 311 311 312 313
314 315 315 314 314 314 311 311 314 313 312 316 318 315 313 313 314 315 315 315 314 312 314 313 311 313 313 310 311 312 310 309 309 309 309 310 310 310 309 310 312 313 313 313 314 313 313 312 312 311 310 310 309 309 309 309 309 309 308 307 306 306 306 305 306 306 306 306 306 307 308 307 307 308 308 308 309 308 308 309 310 310 311 311 311 312
312 313 315 314 313 312 312 313 315 312 312 317 317 313 313 315 315 315 314 313 313 312 312 310 308 309 310 309 310 310 309 309 308 308 308 309 309 309 309 310 311 311 312 312 313 313 312 311 311 310 310 309 309 309 308 308 309 308 307 307 308 308 307 307 307 308 307 307 307 307 307 307 307 308 308 308 308 308 307 307 306 306 307 307 306 307
313 313 313 312 312 313 312 313 313 311 312 314 312 311 313 314 314 315 312 309 310 311 310 308 307 307 308 307 307 307 308 308 308 307 307 307 308 308 308 309 311 311 311 311 311 311 310 310 311 310 310 309 309 309 308 307 308 308 307 308 308 308 307 307 307 308 307 307 308 308 308 307 308 308 309 309 309 308 308 307 306 306 306 306 305 304
314 314 313 312 314 315 312 311 312 311 311 312 311 310 312 313 314 317 314 307 307 309 308 307 307 306 306 306 306 307 307 308 307 307 306 306 306 307 307 308 309 309 310 310 310 310 310 309 309 309 309 309 309 308 307 307 307 308 308 308 308 307 307 307 307 307 307 307 307 307 307 307 308 308 309 309 309 308 308 307 307 307 307 307 307 307
310 313 314 313 315 315 312 311 313 311 309 313 313 310 310 311 312 315 313 307 306 306 306 307 307 306 305 305 305 306 306 307 308 306 306 306 306 305 306 307 308 308 309 308 308 308 308 308 308 308 308 308 308 307 307 306 306 307 307 307 307 307 307 307 307 306 306 307 307 307 307 307 307 307 308 308 308 309 309 308 308 308 308 308 307 308
308 311 313 313 314 314 311 310 310 308 308 311 312 309 308 308 308 310 312 308 305 305 305 305 306 305 304 304 305 305 306 307 308 307 305 305 305 305 305 305 306 307 307 307 307 307 306 307 307 307 307 307 306 306 306 306 306 307 307 307 306 306 307 307 307 307 307 306 306 306 306 307 307 307 307 307 307 307 308 308 308 308 308 308 308 308
310 311 313 313 312 311 310 309 308 308 308 309 309 307 306 306 306 309 311 308 305 304 303 304 304 303 303 304 304 305 306 307 307 306 304 304 305 305 305 305 305 305 305 305 305 305 305 305 306 306 306 307 306 305 304 305 306 306 306 306 306 306 306 306 306 306 306 305 305 306 306 306 306 306 305 305 305 305 306 306 307 307 307 308 307 308
311 313 313 311 310 310 310 309 308 308 308 307 306 305 305 304 306 310 310 306 303 303 303 303 303 303 303 303 303 304 306 306 305 304 304 304 304 304 304 304 304 304 304 304 304 304 304 304 304 304 305 305 305 304 304 304 304 305 305 305 306 306 306 306 306 306 306 306 306 306 306 306 306 305 306 306 306 306 306 307 308 308 308 308 308 309
311 312 311 310 309 309 310 309 307 307 306 305 304 304 303 304 308 308 306 304 302 302 302 302 302 302 302 302 302 303 304 303 303 303 303 303 303 303 303 303 303 303 304 304 304 304 303 303 303 303 303 304 304 303 303 303 303 304 304 304 305 305 305 306 306 306 307 307 306 307 306 306 306 306 307 307 307 307 307 307 309 309 309 309 309 310
310 311 310 309 309 309 309 308 307 306 305 303 303 303 303 306 308 306 303 302 302 302 301 301 302 301 301 301 302 302 302 302 302 302 302 302 302 302 302 302 302 303 303 303 303 303 303 303 303 303 303 303 303 303 303 303 303 303 303 304 304 304 304 304 305 305 305 305 305 305 305 306 306 306 306 306 306 306 306 306 307 308 308 308 309 310
306 310 310 307 307 308 307 307 307 307 305 302 303 303 303 306 306 303 301 301 301 301 300 300 300 300 300 300 300 300 300 301 301 301 301 301 301 301 301 301 301 301 302 302 302 302 302 303 303 303 303 302 302 302 302 302 302 303 303 303 303 304 304 304 305 304 304 304 304 305 305 305 305 305 305 305 306 306 306 307 307 307 307 308 309 309
304 306 306 305 306 307 306 306 307 306 303 301 302 303 302 303 302 301 300 300 300 299 299 299 299 299 299 299 299 299 300 299 300 300 300 300 300 300 300 300 300 300 301 301 301 301 301 301 302 302 302 302 302 302 302 302 302 302 302 303 303 303 303 304 304 304 304 304 304 304 305 305 305 305 306 307 307 307 308 308 307 307 308 308 308 308
302 303 303 303 304 305 303 305 305 303 300 300 300 301 300 300 300 299 299 299 299 299 298 299 299 299 299 299 299 299 299 299 299 299 299 299 299 299 299 299 299 299 300 300 300 300 300 300 301 301 301 301 302 302 302 302 302 302 302 303 303 303 303 303 304 304 304 304 304 304 305 305 305 305 306 306 306 306 306 306 306 306 307 307 308 308
300 300 301 302 303 304 302 301 300 299 299 299 299 299 299 299 299 299 299 298 298 298 298 298 298 298 298 299 298 298 299 299 299 299 299 299 299 299 299 299 299 299 299 299 299 299 300 300 300 300 301 301 301 301 301 302 302 302 302 302 302 303 303 303 303 303 304 304 304 304 304 304 305 305 305 305 305 304 304 304 305 305 305 306 307 308
299 299 300 301 302 304 302 299 298 298 299 299 299 299 299 298 298 298 298 298 298 298 298 299 298 298 298 299 298 299 299 299 299 299 299 299 299 299 299 299 299 299 299 299 299 300 299 299 300 300 300 301 301 301 301 302 302 302 302 302 302 302 302 303 303 303 303 303 303 304 304 304 304 304 303 303 303 304 304 304 305 305 305 306 307 307
300 300 300 300 300 301 301 298 297 298 298 298 298 299 298 298 298 298 298 298 298 299 299 299 299 299 299 299 299 299 299 299 299 299 299 299 299 299 299 299 299 299 299 299 299 299 299 299 300 300 300 300 300 301 301 301 301 301 301 301 301 301 302 302 303 303 303 303 303 303 303 304 304 303 303 303 303 303 304 304 304 305 305 305 306 306
300 300 300 299 301 301 300 298 298 299 299 298 298 298 298 298 298 298 298 299 299 299 299 299 299 299 299 299 299 299 299 299 299 299 299 299 299 299 299 299 299 299 299 300 299 299 299 299 300 300 300 300 300 300 300 300 300 301 301 301 301 301 302 302 302 302 302 303 303 303 304 304 304 303 303 303 302 302 302 303 303 303 304 304 305 305
300 300 299 300 301 301 299 298 298 299 299 299 298 299 298 298 299 299 299 299 299 299 299 299 298 298 298 298 298 298 298 298 298 298 299 299 299 299 299 299 299 299 299 299 299 299 300 300 300 300 299 300 300 300 300 301 301 301 301 301 301 302 302 302 302 303 303 303 304 304 304 304 303 302 302 302 302 302 302 302 303 303 304 304 304 305
299 299 299 299 299 299 298 298 298 298 299 298 298 299 298 298 299 298 298 298 298 298 298 298 298 298 298 298 298 297 298 298 298 298 298 298 298 299 299 299 299 299 299 299 299 299 299 299 300 300 299 299 300 300 300 301 301 301 301 301 302 302 302 302 303 303 303 303 303 303 302 302 301 301 301 301 301 302 302 303 303 304 304 304 304 305
Wind_Speed
10 3 4 6 6 8 6 4 2 3 3 5 6 5 7 7 5 3 6 4 5 6 3 2 4 7 4 6 5 11 25 24 22 22 22 23 24 26 28 27 27 26 24 23 21 21 21 23 24 22 22 20 19 18 19 20 20 21 21 20 19 18 16 15 15 14 14 15 16 16 13 11 9 10 12 12 10 8 5 3 2 5 5 6 6 6
9 5 6 9 8 8 6 4 2 4 5 5 5 5 7 7 6 4 6 4 7 6 2 5 4 6 4 5 5 6 12 14 19 20 22 26 25 26 30 31 30 26 24 24 24 23 22 23 25 25 24 22 21 20 20 20 20 21 21 20 20 19 17 15 15 15 14 13 14 14 13 11 9 10 11 10 10 7 5 3 2 6 11 12 11 11
5 6 9 11 9 7 4 3 5 4 5 4 4 5 6 4 5 6 5 6 7 4 3 6 6 6 6 7 5 3 8 15 27 28 29 30 26 25 29 32 31 28 27 27 28 27 26 28 29 27 25 23 21 20 20 20 20 21 21 21 20 19 18 16 15 15 14 13 13 13 13 12 10 11 10 7 9 8 6 6 7 11 15 15 13 12
4 7 11 11 7 6 2 4 5 5 4 2 2 2 6 6 3 4 5 4 5 3 1 5 7 6 6 8 7 1 7 16 26 31 33 34 32 30 31 34 34 32 31 31 31 30 30 32 32 29 27 25 22 21 21 21 21 21 22 22 20 19 18 18 18 17 16 16 15 14 14 12 9 9 7 7 11 10 8 10 11 14 13 12 12 11
7 7 6 5 6 5 2 4 3 3 3 4 3 3 5 7 4 1 2 4 6 4 2 5 6 6 6 5 6 4 4 10 18 23 27 29 30 31 32 34 34 33 33 32 31 31 31 33 32 30 28 25 23 22 22 22 22 22 22 21 20 19 19 20 21 19 18 18 19 18 17 14 11 10 9 10 13 11 10 11 11 13 14 13 12 10
9 7 5 6 4 2 3 2 1 2 1 4 4 5 6 8 8 4 1 3 6 5 3 4 3 5 6 5 7 5 1 5 10 12 15 18 21 27 32 32 31 31 32 32 32 31 31 31 30 30 28 25 23 23 22 22 22 22 22 20 20 20 20 20 21 20 18 18 18 18 18 16 14 14 12 12 13 12 11 11 11 12 13 12 10 7
5 4 6 6 3 3 3 1 3 2 1 3 4 4 3 6 8 5 2 3 3 2 4 5 5 3 6 6 7 5 3 6 6 7 10 10 16 27 33 33 33 31 30 31 32 31 29 29 28 28 28 25 23 24 23 23 23 23 22 21 21 21 20 20 19 19 18 18 16 15 15 15 16 17 15 14 13 13 12 10 10 11 11 10 9 8
1 3 4 4 4 2 1 2 5 5 3 3 5 4 5 5 6 5 4 2 3 2 3 2 6 2 4 5 7 6 5 5 5 6 7 11 22 31 32 32 35 33 31 33 32 31 29 28 28 28 27 24 23 25 25 25 25 24 24 22 22 23 21 19 18 18 18 18 17 16 16 16 16 16 16 15 14 13 12 11 11 11 11 12 11 11
3 6 4 4 3 1 3 5 6 6 4 4 6 4 1 4 6 6 5 3 2 2 4 4 3 3 4 6 7 7 5 2 3 5 5 8 16 29 36 35 35 33 31 31 29 29 29 27 27 27 27 25 24 26 26 27 26 25 25 23 23 24 23 20 19 19 18 17 18 18 18 17 17 15 15 16 15 13 12 12 12 11 11 11 12 12
3 6 7 5 4 3 4 7 7 5 6 5 3 1 3 3 4 5 4 3 2 3 3 6 2 2 3 6 4 4 3 1 3 2 4 3 4 20 35 31 28 29 29 28 26 26 27 26 26 26 26 25 25 27 27 28 28 26 26 25 25 26 24 22 20 19 19 18 19 18 17 17 17 16 15 16 15 14 12 12 12 11 11 11 11 12
4 5 4 3 3 3 3 5 5 6 4 3 3 3 4 2 3 4 4 1 2 1 5 5 2 2 4 4 2 1 2 3 4 3 4 5 8 17 31 27 24 27 29 29 28 26 25 23 23 25 26 26 26 26 26 28 29 29 28 28 27 27 26 25 22 21 20 19 19 19 16 16 17 16 16 17 15 14 12 11 11 11 11 10 10 11
4 2 2 2 7 6 3 4 5 6 3 3 4 3 4 4 4 2 3 2 1 4 4 2 5 3 3 3 3 4 2 4 6 4 6 9 13 19 25 26 23 22 22 27 28 26 24 21 21 23 24 26 27 26 26 27 29 30 30 29 28 28 28 26 24 22 21 20 20 20 18 16 16 15 15 17 15 13 12 10 9 10 11 10 9 10
4 1 2 3 8 8 2 2 5 6 2 3 3 2 2 3 3 3 3 2 1 4 4 3 5 2 4 4 3 5 2 3 5 7 10 14 15 20 24 24 25 24 21 22 23 22 20 17 18 19 20 22 25 27 27 27 29 31 30 29 29 30 30 28 26 23 22 21 20 21 20 16 15 14 13 15 14 12 11 9 8 8 10 10 9 9
4 5 3 2 3 7 4 1 1 4 1 3 4 3 4 2 2 1 2 1 1 4 5 4 1 1 4 4 3 7 5 2 10 15 18 19 18 18 25 30 28 26 25 22 20 18 15 13 13 15 17 20 23 25 27 29 29 30 31 31 29 30 30 28 26 25 22 21 21 22 21 17 14 13 13 13 12 11 10 8 6 6 7 8 8 8
2 5 4 3 1 7 6 4 5 4 3 3 4 4 5 4 3 2 2 2 2 4 5 2 1 1 2 4 5 6 4 11 18 20 19 18 21 24 26 28 26 23 21 17 14 12 11 11 9 8 12 19 23 24 27 31 30 29 31 32 28 25 27 28 26 25 23 21 21 22 21 18 14 13 13 12 11 9 9 7 6 4 4 5 5 6
2 4 4 6 8 8 6 5 5 3 2 3 2 2 2 5 5 3 3 5 5 2 3 1 2 2 3 4 6 4 4 13 16 16 16 16 24 30 27 25 24 22 18 14 11 9 8 8 8 4 3 9 18 21 23 27 28 27 26 27 27 25 26 28 25 23 22 20 21 22 22 19 15 14 13 13 11 9 8 7 6 4 3 2 2 2
3 6 5 6 11 8 4 2 2 2 2 2 2 1 2 5 6 4 2 2 3 2 2 3 3 1 0 4 5 3 4 8 10 12 15 18 24 27 24 24 24 22 19 16 13 12 10 9 7 6 7 7 8 13 19 21 23 23 21 22 28 27 25 26 24 23 22 21 21 21 22 21 17 15 15 13 11 9 8 7 6 5 4 2 2 2
2 4 7 3 5 6 6 5 3 3 4 2 2 4 3 2 4 4 1 2 2 1 3 4 3 1 1 2 5 2 3 6 7 10 14 18 23 24 23 24 23 21 20 18 15 14 12 10 8 8 9 10 9 8 9 11 14 17 18 22 27 27 25 22 22 24 23 22 21 19 20 21 18 16 15 14 11 8 9 9 8 7 7 5 5 5
2 1 7 6 4 2 3 3 2 4 1 2 4 5 1 3 1 1 2 1 0 1 3 3 2 1 2 2 5 4 3 5 6 8 11 13 17 21 23 23 21 19 19 17 16 15 14 12 11 10 10 10 11 10 8 6 8 10 12 15 16 17 20 18 18 23 23 21 21 18 16 18 16 13 13 14 12 9 9 10 10 10 8 7 7 7
2 2 4 6 7 6 4 1 2 3 4 2 3 3 1 3 2 1 2 3 3 2 2 3 2 2 1 3 2 3 4 7 7 7 6 10 17 21 23 22 20 18 16 14 15 16 15 13 11 11 10 9 10 10 9 8 7 6 5 6 4 3 12 18 18 21 22 21 21 19 15 15 14 10 10 12 13 11 10 10 11 11 10 9 8 7
3 2 2 6 8 7 3 2 2 3 1 1 2 2 2 1 2 2 2 1 3 2 1 1 1 3 4 2 2 2 3 7 9 8 5 10 20 22 22 21 19 17 14 12 13 15 15 12 9 8 8 8 7 8 7 6 5 4 2 2 3 4 9 21 20 17 20 22 22 20 18 16 15 13 12 13 14 13 12 12 12 12 11 10 8 7
2 2 1 3 5 3 4 6 6 2 2 3 2 3 2 1 3 3 3 3 1 3 3 3 1 5 5 1 2 4 4 5 11 9 5 12 23 23 21 20 19 18 16 14 14 14 13 11 11 10 9 8 7 6 6 6 6 5 6 7 8 7 11 19 17 16 20 23 22 20 20 19 18 18 17 16 15 15 14 15 15 14 13 12 10 9
1 3 2 1 3 4 8 10 10 9 5 1 3 4 4 3 4 4 1 3 2 1 3 4 1 5 5 1 2 4 4 5 14 16 11 15 23 23 21 19 18 18 17 15 14 14 13 12 14 14 13 11 10 8 7 7 7 7 9 9 9 10 13 15 15 16 19 21 21 21 21 21 20 21 21 19 18 17 17 17 17 17 16 14 12 11
3 3 2 2 4 4 8 10 9 10 8 4 0 3 3 2 3 5 4 3 2 2 3 3 0 4 5 4 2 5 3 8 17 19 17 18 20 21 20 19 18 17 15 14 14 13 13 13 14 14 13 13 13 11 9 8 7 7 7 8 8 10 12 11 13 16 18 20 21 21 21 22 22 21 20 19 18 19 21 21 20 19 18 16 14 13
1 1 2 1 3 5 6 7 7 7 6 3 3 4 4 2 4 3 1 2 1 1 3 4 1 3 5 5 2 4 3 8 12 15 18 18 18 21 20 18 17 15 13 14 14 13 13 12 12 13 13 12 12 11 9 8 8 7 6 7 9 10 11 10 10 12 15 18 20 20 20 20 21 20 19 19 19 21 23 23 21 21 20 19 18 16
1 1 3 4 2 1 1 0 2 5 5 3 5 5 5 4 4 3 2 3 1 3 3 4 2 4 5 6 6 6 7 9 9 13 17 15 16 18 18 17 16 14 14 15 14 15 15 13 12 12 12 11 10 9 9 9 9 8 8 9 11 11 10 10 9 9 11 13 15 15 16 17 18 17 16 16 17 20 23 22 21 21 20 20 20 18
2 1 2 3 5 4 4 3 3 4 4 4 6 7 6 5 4 5 3 1 3 1 3 1 5 3 2 4 6 6 7 7 7 11 14 14 16 17 16 15 14 14 14 14 14 15 16 16 14 13 12 12 11 10 9 9 9 9 10 10 11 11 11 10 9 9 8 8 9 9 11 12 11 10 10 10 12 16 18 19 19 19 18 19 19 19
3 1 1 2 3 3 5 7 8 7 6 6 5 6 7 6 6 5 1 3 3 4 2 3 4 4 3 1 5 5 7 7 6 11 17 19 19 16 15 14 14 15 15 13 12 13 14 15 15 13 13 14 14 12 11 10 9 8 9 10 12 13 13 12 10 9 8 7 6 5 5 6 5 4 5 5 6 7 8 9 10 10 12 15 17 18
4 1 3 2 4 6 5 6 8 7 7 6 5 5 5 6 7 5 2 4 2 4 5 5 2 0 3 2 5 5 5 6 6 7 14 21 22 18 14 14 16 18 17 16 15 14 13 14 13 12 13 13 13 12 11 11 10 8 6 7 9 11 11 11 10 9 9 7 6 6 6 5 4 3 4 3 3 3 2 2 3 3 6 8 10 11
4 2 2 1 2 5 6 6 7 7 7 7 7 6 4 6 6 6 3 2 2 2 5 2 3 1 3 2 4 6 9 12 14 14 7 6 14 17 18 19 20 20 20 19 18 16 15 15 13 11 11 10 10 10 9 10 10 9 7 7 7 7 8 8 7 8 9 7 5 5 6 4 3 2 2 1 1 1 1 1 2 3 4 5 5 6
3 1 1 4 4 5 5 6 7 7 7 6 7 8 6 6 6 5 5 5 4 3 2 7 7 3 3 5 9 14 19 19 17 19 20 16 8 3 10 14 18 22 23 20 18 18 18 17 15 13 10 10 11 11 10 9 8 9 9 8 7 5 4 3 3 5 8 7 5 5 4 3 3 3 2 2 1 1 2 3 4 4 4 5 6 6
3 0 2 5 3 3 4 6 7 7 8 7 7 6 5 5 4 2 3 4 4 4 6 9 6 5 4 7 11 14 18 16 13 16 21 21 21 18 14 11 6 13 22 23 22 21 20 17 16 14 11 8 7 6 5 4 5 6 5 4 4 4 3 2 2 3 5 6 5 5 4 3 4 4 4 4 4 4 4 4 5 5 5 6 6 6
3 3 1 3 2 2 3 4 6 7 8 5 4 3 1 2 3 4 4 5 6 5 4 5 2 5 4 7 9 8 10 12 13 18 21 20 21 23 23 24 18 4 10 18 23 23 20 18 19 17 13 9 7 7 5 4 5 5 2 1 1 1 1 2 2 2 2 2 3 4 4 4 3 3 3 4 5 6 6 7 7 7 8 9 9 9
2 3 3 3 2 2 1 4 6 5 2 4 3 4 2 2 7 6 4 6 7 5 4 3 3 6 8 8 9 8 8 12 19 23 24 21 21 24 25 23 16 8 5 10 18 21 21 22 22 19 14 10 9 9 6 2 1 2 2 1 1 1 2 2 1 2 1 1 0 1 2 2 2 3 4 5 5 6 6 6 7 8 9 10 10 11
4 3 3 2 3 2 2 6 5 2 5 2 5 9 7 4 8 8 6 9 11 7 6 8 7 9 11 11 13 14 13 18 25 27 27 24 21 22 25 23 17 13 13 15 19 20 19 19 17 14 12 10 9 7 3 2 1 2 1 2 2 3 3 2 1 2 2 2 3 3 3 3 2 3 4 5 6 6 6 6 6 6 7 8 9 10
5 4 3 2 2 2 2 3 2 4 3 4 9 9 8 7 6 7 8 11 12 9 7 8 7 9 13 16 17 17 13 17 23 26 26 25 22 22 22 20 18 18 17 15 15 15 15 14 11 8 7 6 7 7 2 3 2 2 4 4 4 3 4 3 4 4 3 3 5 4 4 4 3 4 5 6 7 8 8 8 8 7 8 9 10 11
6 4 3 2 1 3 3 2 2 2 6 6 6 6 6 6 4 3 5 5 9 10 8 7 6 9 13 17 20 19 13 13 16 19 23 22 19 20 22 18 15 13 11 10 10 9 7 5 5 4 2 2 3 3 4 2 2 2 3 5 4 5 6 6 6 6 5 5 5 5 5 6 6 6 6 7 7 8 8 8 9 9 10 11 11 12
7 6 5 3 1 3 4 1 2 1 2 3 3 5 8 10 8 3 4 3 7 13 14 10 7 9 12 15 20 21 15 11 7 10 19 20 16 17 20 17 14 12 10 9 8 9 9 6 2 3 3 3 3 0 4 5 6 6 6 6 7 8 8 8 8 9 9 8 8 8 8 9 9 9 9 9 9 10 11 11 12 12 13 13 13 13
3 3 5 4 2 3 4 2 2 2 2 3 5 8 12 15 13 6 3 3 6 13 17 13 9 11 13 14 18 16 11 6 2 8 16 17 15 17 17 14 12 11 11 12 10 7 8 7 3 1 2 4 3 1 2 4 6 9 11 11 10 10 11 11 11 12 12 12 12 11 11 11 12 13 13 13 13 14 14 15 16 16 15 15 15 15
7 4 4 3 2 3 4 3 2 2 1 3 6 9 15 17 12 5 3 1 8 14 17 16 13 14 16 16 16 11 6 4 4 9 14 14 14 16 16 15 14 12 11 13 13 9 6 5 5 4 3 4 6 6 6 7 8 9 11 11 11 12 13 13 13 13 13 14 14 13 13 14 14 14 13 13 14 14 14 15 15 16 16 15 15 15
4 3 4 2 1 2 3 2 1 1 1 4 8 11 15 13 7 4 3 4 10 13 15 16 15 16 16 16 13 9 7 8 10 12 13 13 15 17 16 15 15 14 13 13 13 13 10 7 6 7 5 3 5 8 9 10 11 12 13 13 14 14 14 14 14 13 14 14 15 15 16 15 15 13 12 13 14 15 16 15 15 16 17 16 15 15
3 2 2 2 2 2 1 2 2 1 2 5 9 12 12 6 2 2 2 7 10 11 14 14 14 16 18 17 14 12 12 13 13 14 14 15 16 17 17 18 17 16 14 13 14 16 16 13 12 11 9 8 9 10 11 11 13 14 15 16 16 17 16 17 16 15 16 16 16 16 16 16 16 16 16 17 18 18 18 17 17 18 18 17 17 18
3 1 2 2 2 1 2 4 2 1 1 2 6 8 7 3 3 2 4 8 10 12 15 15 15 18 19 18 17 17 16 15 14 14 14 15 16 17 18 18 19 19 18 17 16 17 18 17 15 14 15 15 15 16 16 16 17 18 18 19 17 16 15 15 16 16 17 18 18 18 18 18 18 18 18 18 17 17 18 17 16 17 19 19 20 20
4 1 0 1 1 2 3 2 1 3 3 6 4 2 2 1 0 3 6 8 10 13 16 17 17 18 18 18 19 18 18 17 16 16 17 17 18 19 19 19 20 21 20 19 19 19 20 20 18 18 19 19 19 18 17 18 20 20 19 18 16 16 16 16 17 18 19 19 19 19 19 18 16 15 15 14 13 14 16 15 15 16 17 18 20 22
4 3 2 1 1 2 3 1 2 5 9 10 8 6 8 9 10 12 13 13 14 16 17 17 18 18 18 18 19 19 19 19 19 19 20 21 21 22 22 22 22 22 22 22 22 22 22 22 22 22 22 20 20 18 15 15 18 17 15 13 12 13 14 15 17 18 18 18 19 19 19 19 17 16 16 17 17 18 19 18 18 18 17 16 19 22
5 9 7 2 2 3 4 10 14 13 11 11 11 11 13 15 16 18 19 18 18 19 18 18 18 19 19 19 19 19 19 19 20 20 20 20 20 21 22 22 22 21 21 21 22 22 23 23 23 23 23 22 22 21 18 17 18 18 17 16 15 14 15 16 18 19 19 19 21 22 23 23 23 23 23 23 23 23 22 20 19 20 19 17 18 20
6 11 8 3 3 3 3 8 13 12 11 12 14 14 16 19 20 20 19 18 19 19 18 18 18 18 18 18 18 19 20 20 20 21 22 22 22 23 23 23 23 23 22 22 22 22 22 21 22 23 21 19 19 17 15 14 16 17 19 21 21 20 20 19 19 20 20 22 23 25 26 26 26 26 25 25 24 23 21 20 19 19 19 19 19 19
5 8 5 3 4 2 0 7 15 14 12 16 18 19 20 22 22 21 19 18 18 17 16 16 16 17 18 18 18 20 21 21 21 21 22 23 24 25 25 25 26 26 26 26 26 25 23 22 21 20 19 17 16 14 13 14 16 19 22 24 24 22 20 20 21 23 24 26 28 29 30 29 28 27 26 26 26 24 23 23 23 22 22 22 22 22
7 7 2 1 3 3 3 10 17 14 11 16 21 20 21 22 21 18 17 15 14 14 15 15 16 16 17 18 18 19 20 22 22 22 23 23 23 24 25 25 25 26 26 27 28 27 26 25 23 21 19 16 15 16 18 18 18 20 22 24 23 21 21 22 25 27 28 30 31 31 31 30 29 29 30 31 31 31 30 29 27 26 25 26 25 25
6 3 1 3 4 3 3 9 13 7 4 12 19 19 19 19 16 14 14 14 14 15 15 16 16 16 16 16 17 17 19 21 21 22 22 23 23 23 23 23 23 24 25 26 28 28 28 27 26 25 23 19 16 16 18 17 16 16 18 20 21 22 23 25 27 28 30 30 30 30 30 30 30 31 32 32 32 30 30 29 27 25 23 23 23 22
4 2 3 4 3 1 5 12 13 8 7 11 16 16 16 16 14 14 15 15 15 16 15 15 16 16 16 17 17 16 17 19 20 20 21 22 21 21 20 19 19 20 21 23 26 28 29 27 25 26 26 25 21 18 17 16 16 16 17 19 21 21 22 24 25 26 27 28 28 29 30 31 32 31 30 31 31 29 27 24 22 21 21 21 20 19
Wind_Direction
195 189 232 225 233 233 217 190 234 320 349 334 327 322 323 321 319 55 113 136 92 108 176 219 240 255 234 235 257 147 142 144 147 143 140 148 154 156 161 166 172 173 169 169 167 158 160 164 162 174 190 191 195 199 193 185 180 177 173 166 163 161 161 162 161 156 144 135 134 137 147 148 143 160 169 170 175 186 208 226 170 163 151 149 164 153
196 200 233 230 232 226 202 144 81 13 8 356 348 331 326 328 320 359 78 80 61 75 310 334 328 292 297 307 288 161 138 137 149 146 148 159 164 164 164 166 169 168 163 167 166 160 165 166 166 178 188 190 194 194 190 185 180 181 178 172 166 162 162 164 160 149 137 133 135 141 147 142 137 152 165 174 184 196 195 171 133 116 99 98 114 121
204 227 242 234 232 223 209 84 64 39 25 9 358 342 313 309 325 343 23 56 64 64 319 347 354 316 314 329 313 154 120 142 157 158 160 165 169 170 168 168 170 166 164 168 167 163 167 168 171 181 185 186 192 191 189 186 185 188 185 178 171 166 167 162 152 143 136 135 138 145 148 144 140 145 152 157 160 168 154 131 121 113 101 97 110 121
200 239 242 225 202 194 190 48 43 29 18 332 304 322 293 292 349 345 327 10 57 84 44 13 354 315 319 340 324 329 111 140 156 162 167 169 172 174 172 171 169 167 166 167 168 169 171 172 175 179 181 184 189 189 188 190 193 193 190 184 174 170 171 159 152 153 154 151 149 154 156 152 146 144 148 135 128 126 114 115 120 121 116 113 124 136
224 230 220 168 147 155 108 55 43 30 354 300 238 213 263 287 314 340 289 355 25 14 22 40 9 318 315 334 304 306 87 133 145 153 165 175 180 176 171 172 169 167 170 169 171 176 176 177 179 180 182 184 187 188 188 194 200 198 194 186 177 176 171 161 161 165 166 163 161 162 162 160 159 157 156 137 124 116 110 117 125 131 137 137 140 150
235 218 148 107 109 123 104 110 175 161 285 303 259 222 231 265 288 284 244 50 40 346 309 97 55 305 299 304 275 286 21 163 155 148 169 186 186 170 161 167 168 166 171 173 175 180 180 182 184 183 186 188 191 193 190 195 203 202 198 188 180 180 174 171 172 171 173 170 167 167 167 170 167 160 151 137 127 121 116 114 117 128 140 149 158 164
229 197 132 107 79 42 58 358 284 209 204 288 265 275 269 268 289 296 317 59 90 273 255 142 129 269 298 306 276 272 271 226 187 154 173 168 150 152 155 162 165 164 170 175 177 181 182 185 187 188 192 196 197 196 193 196 203 206 202 192 186 185 181 180 178 175 176 175 171 168 165 166 162 154 146 136 128 121 116 112 113 118 121 129 143 144
164 119 107 113 104 64 75 284 263 212 187 242 238 281 320 321 321 325 339 317 200 226 277 181 146 187 286 286 281 287 283 253 192 151 160 141 135 146 154 160 166 169 174 176 176 181 184 187 191 193 196 199 200 196 195 198 203 208 207 198 192 190 188 187 182 179 178 173 169 164 160 159 156 151 143 138 133 126 126 121 113 109 105 106 112 115
139 135 160 141 118 129 202 238 243 202 189 234 220 213 319 4 344 337 346 304 230 117 314 301 164 172 272 266 285 300 294 277 142 131 131 132 140 152 158 165 172 173 174 178 178 180 187 192 196 200 200 200 201 198 198 200 203 209 210 204 198 196 195 193 187 182 179 174 168 162 156 151 151 152 147 143 139 135 132 122 111 107 102 100 102 105
180 176 180 138 128 180 218 239 248 229 209 210 206 107 52 23 325 317 317 305 9 88 261 281 236 188 273 267 283 311 293 174 126 92 120 111 95 154 162 164 167 167 170 178 183 185 191 196 200 205 204 200 200 201 202 203 204 207 210 208 204 202 200 196 191 187 181 175 170 164 154 147 152 161 157 149 145 141 134 119 115 114 109 105 105 106
229 188 168 120 167 209 259 260 269 272 234 145 92 24 25 346 287 271 256 254 41 337 248 256 271 268 276 279 281 269 266 177 148 45 80 97 64 129 158 164 162 168 176 181 184 188 191 197 202 205 205 202 200 203 207 208 208 208 211 213 210 208 207 200 193 191 184 178 174 164 154 151 157 165 164 157 152 148 138 125 122 121 115 108 105 106
272 157 147 202 209 214 281 292 299 298 291 74 67 40 22 335 323 320 320 51 106 264 264 324 2 332 264 266 264 251 237 126 129 99 95 101 79 102 141 161 158 157 173 181 183 186 188 194 202 204 206 205 202 201 203 207 209 209 212 217 217 213 210 204 197 193 187 181 175 165 160 159 161 168 166 159 157 152 145 137 129 123 117 113 108 107
299 266 203 211 212 207 200 291 308 314 316 101 104 92 65 325 356 9 338 13 205 244 259 322 17 21 248 245 279 299 270 146 124 119 112 106 95 89 100 117 119 115 126 151 167 178 182 188 199 204 208 209 205 202 202 204 206 207 211 217 221 220 216 208 199 196 192 184 174 167 167 166 166 173 166 158 161 156 151 149 138 127 121 118 111 107
324 318 297 300 220 193 168 144 263 303 296 148 165 158 151 162 52 350 284 315 275 276 280 286 34 32 294 274 300 322 307 119 95 105 109 101 100 94 89 95 103 104 105 116 135 151 161 169 186 204 215 217 213 210 211 212 209 208 210 212 216 220 218 213 203 197 193 187 176 169 173 173 169 174 168 161 165 159 155 156 141 128 122 116 108 106
302 312 285 301 259 171 176 187 184 214 250 215 200 156 146 156 144 181 214 163 212 275 303 311 131 151 280 271 268 299 6 75 83 96 104 94 91 93 94 96 99 101 101 106 118 131 151 165 169 191 217 219 215 215 216 215 212 210 211 211 213 215 213 214 211 201 193 187 178 172 177 181 175 175 175 172 173 168 163 158 143 129 114 104 94 96
247 259 223 225 223 185 174 196 192 209 274 280 318 70 143 176 153 155 185 176 177 235 317 277 217 183 197 260 269 263 66 76 84 88 87 86 90 93 95 97 98 101 100 100 104 107 127 155 158 154 186 205 211 215 214 214 216 218 220 218 217 216 211 208 202 194 191 188 182 177 180 187 185 179 182 184 185 179 173 164 149 142 124 104 71 62
209 257 266 218 211 195 166 205 205 152 182 295 344 8 216 170 132 121 214 219 135 111 283 235 237 329 218 273 273 213 128 99 99 89 80 82 88 91 93 95 97 100 97 94 96 95 98 117 135 125 103 120 179 209 217 222 229 233 235 228 218 211 207 205 195 187 189 188 185 182 184 191 192 186 187 190 187 176 176 177 163 165 177 193 247 298
147 260 300 293 218 211 210 244 314 52 97 65 309 266 293 37 93 103 119 331 53 120 264 228 202 184 129 271 297 285 146 123 111 103 97 90 88 89 92 95 97 99 102 102 103 104 105 112 124 134 129 123 132 167 203 221 230 230 232 233 225 209 200 203 196 189 190 187 186 189 192 196 198 193 190 192 189 176 177 186 184 187 196 205 228 261
69 308 300 318 322 286 208 211 315 345 14 163 234 265 3 60 13 39 118 178 166 202 275 269 220 128 137 227 300 324 56 77 71 88 101 96 93 94 95 99 101 102 106 109 111 116 117 119 130 144 153 152 147 149 152 164 193 211 221 233 231 205 193 194 189 187 192 188 183 187 198 205 204 197 188 185 189 190 189 191 194 199 204 207 220 243
88 104 283 307 337 358 11 118 169 299 312 267 259 292 69 133 162 191 171 168 164 181 254 304 341 3 251 250 314 9 63 73 56 50 81 101 100 99 100 103 105 108 113 117 120 123 123 129 140 143 151 161 162 160 154 153 169 187 214 237 259 215 193 190 184 187 193 192 186 183 192 207 209 199 185 179 187 198 204 203 202 206 208 208 219 240
42 93 251 302 344 6 350 279 173 167 254 7 30 16 345 357 81 59 332 8 112 141 185 69 23 290 267 270 325 355 96 108 86 51 46 99 100 100 104 107 110 112 116 124 130 129 125 124 129 135 148 157 157 163 162 150 148 145 114 112 52 42 181 186 184 190 195 192 189 184 186 199 206 203 195 189 193 200 204 210 211 209 207 207 217 236
33 99 171 301 339 336 281 300 328 346 145 142 128 145 170 133 87 67 343 320 64 126 159 131 162 264 259 239 341 11 31 98 115 112 101 102 104 107 110 111 114 118 118 120 122 126 124 113 107 111 121 133 141 147 147 129 116 103 78 82 84 95 160 177 180 188 192 188 187 186 188 196 203 205 203 199 200 202 204 213 217 217 218 216 215 226
56 100 87 292 272 275 290 307 320 323 323 246 168 151 138 120 112 114 178 278 283 185 152 118 145 261 263 259 62 53 21 67 110 121 117 107 110 114 116 116 117 118 120 123 124 127 129 120 113 110 106 113 123 126 130 133 122 101 83 79 89 114 147 165 170 178 185 187 189 190 190 195 202 206 206 204 204 208 212 218 220 223 231 232 226 227
7 76 80 302 288 299 310 314 314 321 331 330 36 91 97 136 141 146 182 203 223 232 151 116 222 272 282 292 106 131 151 92 102 116 118 113 116 119 122 123 121 119 120 124 126 125 125 124 122 119 115 112 114 118 122 129 135 127 107 95 100 118 136 151 165 179 187 186 189 192 193 197 203 207 211 215 218 220 221 222 222 225 232 233 228 223
357 70 100 35 340 339 332 332 336 340 354 354 334 39 64 37 47 60 4 55 56 287 118 111 224 263 286 307 32 97 85 75 92 112 117 116 120 123 124 124 124 128 132 131 131 127 124 121 117 120 125 125 124 127 125 120 126 130 120 115 120 126 131 132 146 172 187 188 192 198 201 205 210 215 223 230 232 228 226 226 225 226 229 233 235 230
135 138 106 117 157 258 272 307 6 342 350 355 334 1 31 6 28 82 65 57 59 322 39 97 189 259 303 345 22 41 58 73 84 95 101 108 118 124 127 130 131 132 134 133 134 134 131 126 121 119 120 124 128 128 125 126 131 130 122 117 119 124 127 128 137 157 177 189 197 204 210 215 222 229 235 238 235 231 231 233 233 235 241 250 254 251
73 83 87 139 180 198 232 261 325 341 336 330 328 339 344 342 31 75 62 91 171 337 347 170 156 165 291 23 40 35 49 72 97 107 113 120 127 130 132 136 139 136 135 132 125 126 127 126 128 127 119 117 117 112 109 114 123 132 136 132 131 132 128 127 138 148 156 173 189 200 208 212 217 228 236 236 231 229 233 236 239 244 252 258 260 258
71 12 303 268 247 259 280 299 317 323 309 301 310 319 316 328 10 36 335 237 161 94 318 270 97 110 232 35 64 62 54 57 95 129 138 137 138 143 145 148 152 147 147 147 138 134 128 120 122 126 127 127 123 119 116 112 112 123 137 141 142 141 135 130 132 135 134 139 146 148 156 166 171 187 209 216 216 219 227 233 237 243 247 251 254 255
110 201 251 274 289 292 297 303 310 308 300 304 307 303 318 351 0 355 273 233 130 120 221 246 41 71 245 53 73 93 87 68 72 118 150 151 152 160 165 168 169 163 162 163 160 160 152 138 129 120 118 124 129 131 131 129 128 128 128 131 135 138 140 139 137 136 135 137 141 135 125 129 142 146 147 151 156 164 168 197 221 232 238 247 256 261
101 172 259 354 338 330 338 330 328 326 311 308 312 313 358 36 16 355 327 302 62 135 211 176 72 296 249 87 74 62 53 49 45 40 45 144 164 174 181 186 182 171 164 162 162 164 162 157 153 141 125 121 129 137 141 144 146 142 129 117 118 130 140 146 149 145 143 150 166 164 153 155 167 146 127 142 160 197 224 244 249 259 264 268 280 292
75 142 1 50 30 343 339 327 324 327 317 319 327 328 356 20 2 354 347 348 18 4 359 66 60 317 298 56 57 51 47 46 46 39 26 16 22 129 183 203 203 183 165 160 167 167 162 161 160 158 152 138 133 133 133 143 154 152 148 144 145 156 165 176 192 167 160 170 174 156 143 153 167 157 155 177 204 252 268 271 268 270 275 277 285 299
94 117 20 59 45 310 316 327 330 347 355 352 340 332 358 16 359 357 4 15 38 13 14 44 33 295 304 46 55 57 55 49 40 37 37 33 28 33 36 15 305 209 177 165 167 164 162 166 164 162 165 159 152 147 134 154 184 180 180 182 183 193 194 192 191 165 167 177 167 151 154 185 193 191 197 205 209 218 231 248 260 268 276 281 287 292
118 107 96 86 86 255 288 337 350 13 11 339 306 310 344 50 55 45 17 29 60 66 56 57 357 295 330 35 48 53 56 53 42 40 47 46 36 31 30 25 12 331 175 163 165 160 153 154 150 150 157 152 144 145 128 127 169 184 227 309 98 142 139 110 82 77 114 151 155 165 188 206 202 197 210 225 234 234 234 239 248 256 262 267 274 279
146 126 159 150 137 213 269 18 15 13 326 260 292 344 334 116 95 80 34 23 48 73 102 91 26 4 13 34 47 40 43 61 59 51 48 45 41 37 32 29 31 37 80 130 150 150 147 149 147 146 152 151 143 141 127 99 201 224 285 315 128 232 216 166 80 26 29 2 296 224 236 251 237 218 225 236 243 246 249 253 259 262 263 265 269 271
169 172 198 160 142 181 54 46 30 294 237 215 27 13 3 55 93 96 69 35 30 39 59 56 42 30 29 39 49 44 44 59 60 52 46 45 46 44 38 37 49 70 85 103 119 124 129 140 148 152 154 156 167 166 126 25 266 213 215 187 206 257 257 223 241 255 245 270 282 277 287 302 295 260 249 245 242 247 257 266 273 278 278 281 285 285
172 174 184 150 135 133 86 94 175 241 288 33 38 18 6 15 40 64 56 29 19 29 53 53 44 38 36 36 38 38 42 57 56 49 44 44 44 44 41 43 54 69 78 89 103 114 116 116 121 134 146 155 179 192 172 71 102 184 216 207 211 268 288 277 264 263 259 265 275 281 290 295 289 276 270 268 270 274 276 279 285 285 279 279 283 287
197 188 155 124 120 121 126 184 220 317 346 2 15 9 16 19 11 68 84 30 6 14 30 39 38 36 36 30 22 20 34 56 53 39 32 33 39 39 36 36 45 54 56 55 63 80 87 88 102 118 137 130 143 203 238 274 346 312 247 227 233 259 266 262 268 275 265 252 256 261 262 263 261 261 266 273 280 284 284 287 288 283 279 277 277 278
203 187 146 132 161 129 130 217 294 333 296 286 315 352 7 5 349 0 90 55 349 356 12 29 33 23 27 28 17 16 34 57 49 20 19 21 25 25 21 23 30 31 32 36 41 45 36 19 44 128 142 141 117 129 264 280 306 296 268 262 267 266 263 261 263 262 252 247 253 255 254 255 252 250 253 259 265 268 269 273 274 273 273 273 273 274
77 109 122 127 140 127 131 163 226 201 222 300 327 344 351 351 348 354 63 56 329 342 8 26 27 18 23 25 19 20 42 63 16 353 4 4 6 11 8 5 7 7 18 26 23 28 34 23 14 126 180 204 211 281 312 300 297 288 283 287 283 273 268 263 259 260 259 260 263 263 261 259 259 262 265 266 267 268 269 273 274 273 271 271 271 269
42 36 59 92 135 173 172 178 209 171 80 335 322 339 344 344 353 30 99 24 314 329 2 19 19 17 21 21 22 29 53 58 3 357 358 349 348 358 0 0 356 339 334 350 356 358 9 8 354 341 316 256 251 275 289 288 290 289 287 287 279 273 274 273 270 272 270 268 269 268 266 267 271 276 276 272 269 268 271 277 277 274 274 277 276 268
30 27 43 72 144 182 180 167 126 88 27 312 313 342 347 341 2 79 149 272 303 327 360 11 6 6 11 14 19 19 11 5 356 350 349 340 335 340 340 340 343 337 328 324 327 330 330 325 324 325 322 292 276 281 280 279 285 286 279 273 270 271 275 275 272 271 269 269 271 271 272 274 274 271 266 264 264 262 262 267 271 271 273 272 267 260
21 19 16 14 47 62 109 120 81 52 246 276 311 347 3 360 23 106 267 299 317 339 356 359 0 9 11 10 10 1 349 345 342 341 340 331 328 331 330 327 326 329 329 321 314 315 314 308 306 305 302 296 286 283 280 279 283 286 283 276 272 271 273 271 269 269 270 271 273 275 277 275 268 264 265 267 267 265 263 263 264 267 269 266 260 257
29 33 3 3 27 46 54 69 65 273 259 307 322 350 27 70 188 226 302 321 334 352 2 6 15 17 11 4 0 355 347 340 336 337 335 328 323 320 318 319 319 317 317 314 308 306 303 300 298 296 296 295 287 281 279 278 279 281 284 284 282 279 277 272 268 270 272 274 276 279 280 279 276 276 277 276 273 270 266 265 264 266 268 265 259 255
20 26 94 10 35 51 47 43 226 200 81 44 6 341 71 73 13 6 354 348 0 12 11 9 9 6 359 354 350 344 340 338 333 328 324 321 320 317 312 311 312 310 308 305 302 302 300 297 292 289 288 288 290 289 282 275 276 278 279 282 282 279 278 276 273 274 276 277 281 282 281 280 280 278 273 269 266 264 262 263 264 266 270 268 257 252
4 15 62 58 48 92 131 124 72 80 70 49 26 20 26 20 21 25 20 16 17 15 8 0 356 352 348 344 339 331 327 325 321 320 318 313 310 310 309 307 306 306 304 298 296 298 299 296 293 290 284 280 285 293 287 271 270 273 276 281 280 276 275 274 274 276 278 279 281 281 277 273 270 266 264 263 264 266 266 266 263 263 269 271 258 251
28 32 43 33 10 45 71 62 50 41 34 29 21 17 22 24 21 18 14 10 4 358 354 350 344 339 337 335 332 328 323 320 317 314 312 309 306 305 305 303 302 304 304 300 299 299 299 297 294 291 288 282 280 282 283 275 268 267 271 276 276 273 272 273 276 279 281 280 278 276 274 272 269 267 268 269 270 272 272 271 266 263 266 267 257 248
29 37 45 31 20 26 49 51 38 17 6 20 24 18 16 16 11 5 0 355 349 343 341 339 332 325 325 326 326 323 318 314 314 311 306 304 302 301 301 301 298 297 297 298 300 301 302 304 302 295 289 285 278 271 269 268 265 265 269 272 274 276 278 280 283 282 278 276 274 271 272 274 273 272 272 271 270 270 269 267 264 260 259 258 253 248
28 45 48 22 18 21 50 29 21 10 8 15 15 11 7 0 353 350 347 342 339 335 331 327 322 319 317 316 317 317 313 310 310 310 307 305 302 299 299 299 296 295 293 291 293 295 297 303 308 303 293 286 282 275 270 269 267 267 270 274 277 280 281 281 281 278 274 273 273 273 274 273 271 268 268 268 267 265 263 262 259 257 255 254 254 255
50 52 39 7 14 347 348 19 19 16 9 1 356 353 351 347 342 341 338 332 332 335 333 327 321 319 317 316 315 315 312 310 309 308 306 304 301 299 298 296 294 294 292 289 289 291 291 292 299 303 301 295 289 285 287 288 283 275 274 275 277 279 278 277 275 273 272 273 274 273 271 269 267 266 268 270 270 267 265 263 261 260 257 256 257 261
51 61 8 46 41 354 351 19 22 19 334 336 340 338 340 343 343 341 338 334 333 333 331 326 323 318 314 313 313 312 311 310 310 308 305 302 301 299 298 296 294 293 291 289 287 286 284 284 288 292 293 291 289 287 287 288 288 283 279 278 278 277 276 275 273 272 274 274 273 271 268 268 270 272 271 270 268 266 264 262 260 258 257 256 258 259
62 103 71 70 104 76 7 4 0 346 310 321 333 334 336 343 347 346 343 338 334 331 326 323 323 321 316 315 313 309 306 305 305 304 302 301 301 299 296 294 293 291 290 289 286 284 283 283 286 287 284 281 281 279 275 275 279 280 277 273 271 271 273 275 275 275 276 276 275 276 276 276 275 273 268 263 260 259 259 257 254 253 252 251 253 252